Time,TemperatureF,DewpointF,PressureIn,WindDirection,WindDirectionDegrees,WindSpeedMPH,WindSpeedGustMPH,Humidity,HourlyPrecipIn,Conditions,Clouds,dailyrainin,SoftwareType,DateUTC
2013-11-23 00:02:00,51.1,25.7,30.43,ENE,78,0.0,0.0,37,0.00,,,0.00,meteohub,2013-11-23 08:02:00,
2013-11-23 00:22:00,50.5,25.2,30.43,ENE,78,0.0,0.0,37,0.00,,,0.00,meteohub,2013-11-23 08:22:00,
2013-11-23 00:42:00,50.4,25.0,30.43,ENE,77,0.0,0.0,37,0.00,,,0.00,meteohub,2013-11-23 08:42:00,
2013-11-23 01:02:00,51.4,26.1,30.43,ENE,78,0.0,0.0,37,0.00,,,0.00,meteohub,2013-11-23 09:02:00,
2013-11-23 01:22:00,51.4,26.6,30.43,ENE,78,0.0,0.0,38,0.00,,,0.00,meteohub,2013-11-23 09:22:00,
2013-11-23 01:42:00,50.2,25.5,30.43,ENE,78,0.0,0.0,38,0.00,,,0.00,meteohub,2013-11-23 09:42:00,
2013-11-23 02:02:00,49.8,25.9,30.43,NNE,25,0.0,4.0,39,0.00,,,0.00,meteohub,2013-11-23 10:02:00,
2013-11-23 02:22:00,49.6,25.7,30.43,SE,133,0.0,0.0,39,0.00,,,0.00,meteohub,2013-11-23 10:22:00,
2013-11-23 02:42:00,49.6,25.7,30.43,NE,43,0.0,0.0,39,0.00,,,0.00,meteohub,2013-11-23 10:42:00,
2013-11-23 03:02:00,48.7,24.3,30.43,NE,43,0.0,0.0,38,0.00,,,0.00,meteohub,2013-11-23 11:02:00,
2013-11-23 03:22:00,48.6,24.8,30.43,NE,43,0.0,0.0,39,0.00,,,0.00,meteohub,2013-11-23 11:22:00,
2013-11-23 03:42:00,48.7,24.8,30.43,NE,43,0.0,0.0,39,0.00,,,0.00,meteohub,2013-11-23 11:42:00,
2013-11-23 04:02:00,48.7,24.8,30.43,NE,43,0.0,0.0,39,0.00,,,0.00,meteohub,2013-11-23 12:02:00,
2013-11-23 04:22:00,50.0,26.1,30.46,North,7,0.0,0.0,39,0.00,,,0.00,meteohub,2013-11-23 12:22:00,
2013-11-23 04:42:00,50.5,26.4,30.46,North,357,0.0,4.0,39,0.00,,,0.00,meteohub,2013-11-23 12:42:00,
2013-11-23 05:02:00,50.4,26.4,30.46,North,4,0.0,0.0,39,0.00,,,0.00,meteohub,2013-11-23 13:02:00,
2013-11-23 05:22:00,50.7,26.6,30.46,North,7,0.0,3.0,39,0.00,,,0.00,meteohub,2013-11-23 13:22:00,
2013-11-23 05:42:00,49.8,25.9,30.46,North,7,0.0,0.0,39,0.00,,,0.00,meteohub,2013-11-23 13:42:00,
2013-11-23 06:02:00,48.9,25.0,30.46,North,0,0.0,0.0,39,0.00,,,0.00,meteohub,2013-11-23 14:02:00,
2013-11-23 06:22:00,48.0,24.8,30.49,North,0,0.0,0.0,40,0.00,,,0.00,meteohub,2013-11-23 14:22:00,
2013-11-23 06:42:00,47.7,24.4,30.49,North,0,0.0,0.0,40,0.00,,,0.00,meteohub,2013-11-23 14:42:00,
2013-11-23 07:02:00,47.3,24.3,30.49,North,0,0.0,0.0,40,0.00,,,0.00,meteohub,2013-11-23 15:02:00,
2013-11-23 07:22:00,48.0,25.5,30.49,North,0,0.0,0.0,41,0.00,,,0.00,meteohub,2013-11-23 15:22:00,
2013-11-23 07:42:00,49.8,27.1,30.49,North,7,0.0,2.0,41,0.00,,,0.00,meteohub,2013-11-23 15:42:00,
2013-11-23 08:02:00,52.0,27.9,30.49,North,7,0.0,0.0,39,0.00,,,0.00,meteohub,2013-11-23 16:02:00,
2013-11-23 08:22:00,56.7,30.0,30.49,North,349,2.0,6.0,36,0.00,,,0.00,meteohub,2013-11-23 16:22:00,
2013-11-23 08:42:00,57.2,29.8,30.49,North,1,5.0,6.0,35,0.00,,,0.00,meteohub,2013-11-23 16:42:00,
2013-11-23 09:02:00,57.9,30.4,30.52,North,353,3.0,6.0,35,0.00,,,0.00,meteohub,2013-11-23 17:02:00,
2013-11-23 09:22:00,59.9,32.2,30.52,NNE,25,3.0,6.0,35,0.00,,,0.00,meteohub,2013-11-23 17:22:00,
2013-11-23 09:42:00,61.7,33.1,30.52,NNE,21,2.0,4.0,34,0.00,,,0.00,meteohub,2013-11-23 17:42:00,
2013-11-23 10:02:00,62.8,34.0,30.52,SE,131,0.0,3.0,34,0.00,,,0.00,meteohub,2013-11-23 18:02:00,
2013-11-23 10:22:00,63.9,34.9,30.52,SE,139,0.0,4.0,34,0.00,,,0.00,meteohub,2013-11-23 18:22:00,
2013-11-23 10:42:00,65.5,35.6,30.52,SW,227,0.0,3.0,33,0.00,,,0.00,meteohub,2013-11-23 18:42:00,
2013-11-23 11:02:00,66.2,36.3,30.52,WSW,239,5.0,6.0,33,0.00,,,0.00,meteohub,2013-11-23 19:02:00,
2013-11-23 11:22:00,64.2,35.2,30.52,SSW,210,4.0,6.0,34,0.00,,,0.00,meteohub,2013-11-23 19:22:00,
2013-11-23 11:42:00,65.7,35.8,30.52,SSW,209,3.0,8.0,33,0.00,,,0.00,meteohub,2013-11-23 19:42:00,
2013-11-23 12:02:00,66.4,36.3,30.49,WSW,251,6.0,9.0,33,0.00,,,0.00,meteohub,2013-11-23 20:02:00,
2013-11-23 12:22:00,66.4,36.3,30.49,SSW,202,6.0,6.0,33,0.00,,,0.00,meteohub,2013-11-23 20:22:00,
2013-11-23 12:42:00,66.4,36.3,30.49,SSW,210,8.0,9.0,33,0.00,,,0.00,meteohub,2013-11-23 20:42:00,
2013-11-23 13:02:00,64.9,35.1,30.49,WSW,238,8.0,8.0,33,0.00,,,0.00,meteohub,2013-11-23 21:02:00,
2013-11-23 13:22:00,66.4,36.3,30.49,WNW,287,5.0,9.0,33,0.00,,,0.00,meteohub,2013-11-23 21:22:00,
2013-11-23 13:42:00,64.9,35.1,30.49,SW,225,6.0,9.0,33,0.00,,,0.00,meteohub,2013-11-23 21:42:00,
2013-11-23 14:02:00,65.5,35.6,30.49,West,267,6.0,9.0,33,0.00,,,0.00,meteohub,2013-11-23 22:02:00,
2013-11-23 14:22:00,65.1,35.2,30.49,West,266,8.0,9.0,33,0.00,,,0.00,meteohub,2013-11-23 22:22:00,
2013-11-23 14:42:00,64.4,34.7,30.49,WSW,242,8.0,10.0,33,0.00,,,0.00,meteohub,2013-11-23 22:42:00,
2013-11-23 15:02:00,63.0,34.2,30.49,WSW,254,5.0,9.0,34,0.00,,,0.00,meteohub,2013-11-23 23:02:00,
2013-11-23 15:22:00,62.1,33.4,30.49,WSW,256,6.0,9.0,34,0.00,,,0.00,meteohub,2013-11-23 23:22:00,
2013-11-23 15:42:00,61.7,33.1,30.49,SW,236,6.0,9.0,34,0.00,,,0.00,meteohub,2013-11-23 23:42:00,
2013-11-23 16:02:00,61.5,32.9,30.49,WSW,245,0.0,9.0,34,0.00,,,0.00,meteohub,2013-11-24 00:02:00,
2013-11-23 16:22:00,61.0,32.4,30.49,West,262,3.0,9.0,34,0.00,,,0.00,meteohub,2013-11-24 00:22:00,
2013-11-23 16:42:00,60.6,32.9,30.49,WSW,239,4.0,7.0,35,0.00,,,0.00,meteohub,2013-11-24 00:42:00,
2013-11-23 17:02:00,60.3,32.5,30.52,West,267,3.0,6.0,35,0.00,,,0.00,meteohub,2013-11-24 01:02:00,
2013-11-23 17:22:00,59.7,32.0,30.52,West,267,0.0,5.0,35,0.00,,,0.00,meteohub,2013-11-24 01:22:00,
2013-11-23 17:42:00,59.0,31.5,30.52,WSW,252,0.0,4.0,35,0.00,,,0.00,meteohub,2013-11-24 01:42:00,
2013-11-23 18:02:00,58.5,31.6,30.52,WSW,252,0.0,2.0,36,0.00,,,0.00,meteohub,2013-11-24 02:02:00,
2013-11-23 18:22:00,57.0,30.4,30.55,WSW,252,0.0,0.0,36,0.00,,,0.00,meteohub,2013-11-24 02:22:00,
2013-11-23 18:42:00,55.6,29.7,30.55,WSW,252,0.0,0.0,37,0.00,,,0.00,meteohub,2013-11-24 02:42:00,
2013-11-23 19:02:00,54.3,29.3,30.55,WSW,252,0.0,0.0,38,0.00,,,0.00,meteohub,2013-11-24 03:02:00,
2013-11-23 19:22:00,53.6,29.3,30.55,WSW,252,0.0,0.0,39,0.00,,,0.00,meteohub,2013-11-24 03:22:00,
2013-11-23 19:42:00,52.9,29.3,30.55,WSW,252,0.0,0.0,40,0.00,,,0.00,meteohub,2013-11-24 03:42:00,
2013-11-23 20:02:00,52.3,29.3,30.55,WSW,252,0.0,0.0,41,0.00,,,0.00,meteohub,2013-11-24 04:02:00,
2013-11-23 20:22:00,51.6,29.3,30.58,WSW,252,0.0,0.0,42,0.00,,,0.00,meteohub,2013-11-24 04:22:00,
2013-11-23 20:42:00,51.4,29.7,30.58,WSW,252,0.0,0.0,43,0.00,,,0.00,meteohub,2013-11-24 04:42:00,
2013-11-23 21:02:00,50.9,29.8,30.58,WSW,252,0.0,0.0,44,0.00,,,0.00,meteohub,2013-11-24 05:02:00,
2013-11-23 21:22:00,50.5,30.0,30.58,WSW,252,0.0,0.0,45,0.00,,,0.00,meteohub,2013-11-24 05:22:00,
2013-11-23 21:42:00,50.0,30.0,30.58,WSW,252,0.0,0.0,46,0.00,,,0.00,meteohub,2013-11-24 05:42:00,
2013-11-23 22:02:00,50.4,30.9,30.58,WSW,252,0.0,0.0,47,0.00,,,0.00,meteohub,2013-11-24 06:02:00,
2013-11-23 22:22:00,49.5,30.0,30.58,WSW,251,0.0,0.0,47,0.00,,,0.00,meteohub,2013-11-24 06:22:00,
2013-11-23 22:42:00,49.3,30.4,30.55,WSW,252,0.0,0.0,48,0.00,,,0.00,meteohub,2013-11-24 06:42:00,
2013-11-23 23:02:00,48.9,30.0,30.58,WSW,252,0.0,0.0,48,0.00,,,0.00,meteohub,2013-11-24 07:02:00,
2013-11-23 23:22:00,49.1,30.7,30.58,WSW,252,0.0,0.0,49,0.00,,,0.00,meteohub,2013-11-24 07:22:00,
2013-11-23 23:42:00,49.1,30.7,30.58,WSW,252,0.0,0.0,49,0.00,,,0.00,meteohub,2013-11-24 07:42:00,